| time (UTC) | temp F | wind direction | speed knots | gust knots | rain 1hr in | rain 24hr in | rain mn in | humidity % | barometer mb |
| 20260906161606 | 90 | 48 | 0.0 | 0.9 | 0.00 | 0.28 | 0.00 | 71 | 1012.5 |
| 20260906161107 | 89 | 86 | 0.0 | 1.7 | 0.00 | 0.28 | 0.00 | 72 | 1012.4 |
| 20260906160606 | 89 | 81 | 0.9 | 1.7 | 0.00 | 0.28 | 0.00 | 72 | 1012.4 |
| 20260906160106 | 89 | 82 | 0.0 | 0.9 | 0.00 | 0.28 | 0.00 | 72 | 1012.4 |
| 20260906155607 | 88 | 87 | 0.0 | 1.7 | 0.00 | 0.28 | 0.00 | 76 | 1012.5 |
| 20260906155107 | 88 | 87 | 0.0 | 2.6 | 0.00 | 0.28 | 0.00 | 77 | 1012.5 |
| 20260906154607 | 88 | 84 | 0.9 | 2.6 | 0.00 | 0.28 | 0.00 | 75 | 1012.5 |
| 20260906154107 | 87 | 82 | 0.9 | 0.9 | 0.00 | 0.28 | 0.00 | 76 | 1012.4 |
| 20260906153607 | 87 | 302 | 0.0 | 1.7 | 0.00 | 0.28 | 0.00 | 76 | 1012.5 |
| 20260906153107 | 87 | 301 | 0.0 | 1.7 | 0.00 | 0.28 | 0.00 | 76 | 1012.6 |
| 20260906152606 | 87 | 313 | 0.9 | 2.6 | 0.00 | 0.28 | 0.00 | 76 | 1012.5 |
| 20260906152107 | 87 | 302 | 0.9 | 2.6 | 0.00 | 0.28 | 0.00 | 75 | 1012.5 |
| 20260906151606 | 87 | 312 | 0.0 | 3.5 | 0.00 | 0.28 | 0.00 | 76 | 1012.4 |
| 20260906151107 | 86 | 319 | 0.9 | 3.5 | 0.00 | 0.28 | 0.00 | 76 | 1012.4 |
| 20260906150606 | 86 | 321 | 0.9 | 3.5 | 0.00 | 0.28 | 0.00 | 77 | 1012.6 |
| 20260906150106 | 86 | 319 | 1.7 | 1.7 | 0.00 | 0.28 | 0.00 | 77 | 1012.7 |
| 20260906145107 | 85 | 316 | 0.0 | 1.7 | 0.00 | 0.28 | 0.00 | 79 | 1012.6 |
| 20260906144607 | 85 | 316 | 1.7 | 2.6 | 0.00 | 0.28 | 0.00 | 80 | 1012.5 |
| 20260906143607 | 84 | 314 | 0.9 | 1.7 | 0.00 | 0.28 | 0.00 | 81 | 1012.5 |
| 20260906143107 | 84 | 295 | 0.9 | 1.7 | 0.00 | 0.28 | 0.00 | 82 | 1012.5 |
| 20260906142106 | 83 | 216 | 0.9 | 2.6 | 0.00 | 0.28 | 0.00 | 83 | 1012.6 |
| 20260906141606 | 83 | 316 | 0.0 | 2.6 | 0.00 | 0.28 | 0.00 | 83 | 1012.5 |
| 20260906140606 | 82 | 319 | 1.7 | 2.6 | 0.00 | 0.28 | 0.00 | 84 | 1012.6 |
| 20260906140107 | 81 | 318 | 0.9 | 2.6 | 0.00 | 0.28 | 0.00 | 86 | 1012.6 |
| 20260906135606 | 81 | 317 | 0.9 | 2.6 | 0.00 | 0.28 | 0.00 | 87 | 1012.7 |
| 20260906135106 | 80 | 313 | 1.7 | 3.5 | 0.00 | 0.28 | 0.00 | 89 | 1012.8 |
| 20260906134106 | 79 | 322 | 0.9 | 2.6 | 0.00 | 0.28 | 0.00 | 91 | 1012.9 |
| 20260906133607 | 79 | 335 | 0.0 | 0.9 | 0.00 | 0.28 | 0.00 | 92 | 1013.0 |
| 20260906133107 | 78 | 335 | 0.0 | 0.9 | 0.00 | 0.28 | 0.00 | 92 | 1013.1 |
| 20260906131106 | 77 | 335 | 0.0 | 0.9 | 0.00 | 0.28 | 0.00 | 94 | 1013.0 |
| 20260906130607 | 77 | 335 | 0.0 | 0.9 | 0.00 | 0.28 | 0.00 | 94 | 1012.9 |
| 20260906130107 | 77 | 335 | 0.0 | 0.0 | 0.00 | 0.28 | 0.00 | 94 | 1012.8 |
| 20260906125607 | 77 | 335 | 0.0 | 0.0 | 0.00 | 0.28 | 0.00 | 94 | 1012.9 |
| 20260906124606 | 76 | 335 | 0.0 | 0.0 | 0.00 | 0.28 | 0.00 | 94 | 1012.7 |
| 20260906124106 | 76 | 335 | 0.0 | 0.0 | 0.00 | 0.28 | 0.00 | 94 | 1012.7 |
| 20260906123606 | 76 | 335 | 0.0 | 0.0 | 0.00 | 0.28 | 0.00 | 94 | 1012.6 |
| 20260906123106 | 76 | 335 | 0.0 | 0.0 | 0.00 | 0.28 | 0.00 | 94 | 1012.5 |
| 20260906122607 | 76 | 335 | 0.0 | 0.0 | 0.00 | 0.28 | 0.00 | 94 | 1012.5 |
| 20260906122107 | 75 | 335 | 0.0 | 0.0 | 0.00 | 0.28 | 0.00 | 94 | 1012.5 |
| 20260906121606 | 75 | 335 | 0.0 | 0.0 | 0.00 | 0.28 | 0.00 | 94 | 1012.4 |
| 20260906120607 | 75 | 335 | 0.0 | 0.0 | 0.00 | 0.29 | 0.00 | 94 | 1012.6 |
| 20260906120106 | 75 | 335 | 0.0 | 0.0 | 0.00 | 0.29 | 0.00 | 94 | 1012.7 |
| 20260906115606 | 75 | 335 | 0.0 | 0.0 | 0.00 | 0.29 | 0.00 | 94 | 1012.6 |
| 20260906115106 | 75 | 335 | 0.0 | 0.0 | 0.00 | 0.29 | 0.00 | 94 | 1012.5 |
| 20260906114607 | 75 | 335 | 0.0 | 0.9 | 0.00 | 0.29 | 0.00 | 94 | 1012.4 |
| 20260906113606 | 75 | 335 | 0.0 | 0.9 | 0.00 | 0.29 | 0.00 | 94 | 1012.4 |
| 20260906113107 | 75 | 335 | 0.0 | 0.0 | 0.00 | 0.29 | 0.00 | 94 | 1012.4 |
| 20260906112606 | 75 | 335 | 0.0 | 0.0 | 0.00 | 0.29 | 0.00 | 94 | 1012.4 |
| 20260906112106 | 75 | 335 | 0.0 | 0.0 | 0.00 | 0.29 | 0.00 | 94 | 1012.4 |
| 20260906111106 | 75 | 335 | 0.0 | 0.0 | 0.00 | 0.31 | 0.00 | 94 | 1012.2 |
| 20260906110606 | 75 | 335 | 0.0 | 0.0 | 0.00 | 0.32 | 0.00 | 94 | 1012.2 |
| 20260906110106 | 75 | 335 | 0.0 | 0.0 | 0.00 | 0.33 | 0.00 | 94 | 1012.2 |
| 20260906105606 | 75 | 335 | 0.0 | 0.0 | 0.00 | 0.33 | 0.00 | 94 | 1012.3 |
| 20260906104606 | 75 | 335 | 0.0 | 0.0 | 0.00 | 0.33 | 0.00 | 94 | 1012.3 |
| 20260906104106 | 74 | 335 | 0.0 | 0.0 | 0.00 | 0.33 | 0.00 | 94 | 1012.3 |
| 20260906103106 | 74 | 335 | 0.0 | 0.0 | 0.00 | 0.33 | 0.00 | 94 | 1012.2 |
| 20260906102607 | 75 | 335 | 0.0 | 0.0 | 0.00 | 0.33 | 0.00 | 94 | 1012.0 |
| 20260906101606 | 75 | 335 | 0.0 | 0.0 | 0.00 | 0.33 | 0.00 | 94 | 1012.0 |
| 20260906100606 | 75 | 335 | 0.0 | 0.0 | 0.00 | 0.33 | 0.00 | 94 | 1011.9 |
| 20260906100106 | 75 | 335 | 0.0 | 0.0 | 0.00 | 0.33 | 0.00 | 94 | 1011.9 |
| 20260906095107 | 75 | 335 | 0.0 | 0.0 | 0.00 | 0.33 | 0.00 | 94 | 1011.9 |
| 20260906094606 | 75 | 335 | 0.0 | 0.0 | 0.00 | 0.33 | 0.00 | 94 | 1012.0 |
| 20260906094107 | 75 | 335 | 0.0 | 0.0 | 0.00 | 0.33 | 0.00 | 94 | 1011.9 |
| 20260906093606 | 76 | 335 | 0.0 | 0.0 | 0.00 | 0.33 | 0.00 | 94 | 1011.8 |
| 20260906093107 | 76 | 335 | 0.0 | 0.0 | 0.00 | 0.33 | 0.00 | 94 | 1011.6 |
| 20260906092107 | 76 | 335 | 0.0 | 0.9 | 0.00 | 0.33 | 0.00 | 94 | 1011.4 |
| 20260906091606 | 76 | 335 | 0.0 | 0.9 | 0.00 | 0.33 | 0.00 | 94 | 1011.4 |
| 20260906091106 | 75 | 344 | 0.0 | 0.0 | 0.00 | 0.35 | 0.00 | 94 | 1011.4 |
| 20260906090106 | 75 | 344 | 0.0 | 0.0 | 0.00 | 0.35 | 0.00 | 94 | 1011.4 |
| 20260906085606 | 75 | 344 | 0.0 | 0.0 | 0.00 | 0.35 | 0.00 | 94 | 1011.3 |
| 20260906085106 | 75 | 344 | 0.0 | 0.0 | 0.00 | 0.35 | 0.00 | 94 | 1011.2 |
| 20260906083606 | 76 | 344 | 0.0 | 0.0 | 0.00 | 0.35 | 0.00 | 94 | 1011.2 |
| 20260906083106 | 76 | 344 | 0.0 | 0.0 | 0.00 | 0.35 | 0.00 | 94 | 1011.2 |
| 20260906082606 | 76 | 344 | 0.0 | 0.0 | 0.00 | 0.35 | 0.00 | 93 | 1011.2 |
| 20260906082106 | 76 | 344 | 0.0 | 0.0 | 0.00 | 0.35 | 0.00 | 93 | 1011.2 |
| 20260906081606 | 76 | 344 | 0.0 | 0.0 | 0.00 | 0.35 | 0.00 | 93 | 1011.1 |
| 20260906081106 | 76 | 344 | 0.0 | 0.0 | 0.00 | 0.35 | 0.00 | 93 | 1011.0 |
| 20260906080606 | 76 | 344 | 0.0 | 0.0 | 0.00 | 0.35 | 0.00 | 93 | 1011.1 |
| 20260906080106 | 76 | 345 | 0.0 | 0.0 | 0.00 | 0.35 | 0.00 | 93 | 1011.2 |
| 20260906075606 | 76 | 345 | 0.0 | 0.0 | 0.00 | 0.35 | 0.00 | 93 | 1011.3 |
| 20260906075106 | 76 | 344 | 0.0 | 0.0 | 0.00 | 0.35 | 0.00 | 93 | 1011.2 |
| 20260906074106 | 76 | 344 | 0.0 | 0.0 | 0.00 | 0.35 | 0.00 | 93 | 1011.3 |
| 20260906073606 | 76 | 344 | 0.0 | 0.0 | 0.00 | 0.35 | 0.00 | 93 | 1011.4 |
| 20260906073106 | 76 | 344 | 0.0 | 0.0 | 0.00 | 0.35 | 0.00 | 93 | 1011.4 |
| 20260906072606 | 76 | 344 | 0.0 | 0.0 | 0.00 | 0.35 | 0.00 | 93 | 1011.4 |
| 20260906072106 | 76 | 344 | 0.0 | 0.0 | 0.00 | 0.35 | 0.00 | 93 | 1011.3 |
| 20260906071606 | 76 | 344 | 0.0 | 0.0 | 0.00 | 0.35 | 0.00 | 93 | 1011.3 |
| 20260906071106 | 76 | 344 | 0.0 | 0.0 | 0.00 | 0.35 | 0.00 | 93 | 1011.3 |
| 20260906070606 | 77 | 344 | 0.0 | 0.0 | 0.00 | 0.35 | 0.00 | 93 | 1011.3 |
| 20260906065106 | 77 | 344 | 0.0 | 0.0 | 0.00 | 0.35 | 0.00 | 93 | 1011.4 |
| 20260906064606 | 77 | 344 | 0.0 | 0.0 | 0.00 | 0.35 | 0.00 | 93 | 1011.4 |
| 20260906064106 | 77 | 344 | 0.0 | 0.0 | 0.00 | 0.35 | 0.00 | 93 | 1011.5 |
| 20260906063106 | 77 | 344 | 0.0 | 0.0 | 0.00 | 0.35 | 0.00 | 93 | 1011.6 |
| 20260906062106 | 77 | 344 | 0.0 | 0.0 | 0.00 | 0.35 | 0.00 | 93 | 1011.7 |
| 20260906061606 | 77 | 344 | 0.0 | 0.0 | 0.00 | 0.35 | 0.00 | 93 | 1012.0 |
| 20260906060606 | 77 | 344 | 0.0 | 0.0 | 0.00 | 0.35 | 0.00 | 93 | 1012.2 |
| 20260906060106 | 77 | 344 | 0.0 | 0.0 | 0.00 | 0.35 | 0.00 | 93 | 1012.2 |
| 20260906054606 | 78 | 344 | 0.0 | 0.0 | 0.00 | 0.35 | 0.00 | 92 | 1012.2 |
| 20260906054106 | 78 | 344 | 0.0 | 0.0 | 0.00 | 0.35 | 0.00 | 92 | 1012.3 |
| 20260906053606 | 78 | 344 | 0.0 | 0.0 | 0.00 | 0.35 | 0.00 | 92 | 1012.2 |
| 20260906053106 | 78 | 344 | 0.0 | 0.0 | 0.00 | 0.35 | 0.00 | 92 | 1012.4 |
| 20260906052606 | 78 | 344 | 0.0 | 0.0 | 0.00 | 0.35 | 0.00 | 92 | 1012.3 |
| 20260906051606 | 78 | 344 | 0.0 | 0.0 | 0.00 | 0.35 | 0.00 | 92 | 1012.4 |
| 20260906051106 | 78 | 344 | 0.0 | 0.0 | 0.00 | 0.35 | 0.00 | 92 | 1012.3 |
| 20260906050606 | 78 | 344 | 0.0 | 0.0 | 0.00 | 0.35 | 0.00 | 92 | 1012.3 |
| 20260906050136 | 78 | 344 | 0.0 | 0.0 | 0.00 | 0.35 | 0.00 | 92 | 1012.2 |
| 20260906045606 | 78 | 344 | 0.0 | 0.0 | 0.00 | 0.35 | 0.35 | 92 | 1012.3 |
| 20260906045106 | 78 | 349 | 0.0 | 0.0 | 0.00 | 0.35 | 0.35 | 92 | 1012.3 |
| 20260906044606 | 78 | 349 | 0.0 | 0.0 | 0.00 | 0.35 | 0.35 | 92 | 1012.1 |
| 20260906044106 | 78 | 349 | 0.0 | 0.0 | 0.00 | 0.35 | 0.35 | 92 | 1012.2 |
| 20260906043606 | 78 | 349 | 0.0 | 0.0 | 0.00 | 0.35 | 0.35 | 92 | 1012.2 |
| 20260906043106 | 78 | 60 | 0.0 | 0.0 | 0.00 | 0.35 | 0.35 | 92 | 1012.1 |
| 20260906042606 | 78 | 60 | 0.0 | 0.0 | 0.00 | 0.35 | 0.35 | 92 | 1011.9 |
| 20260906042106 | 78 | 60 | 0.0 | 0.0 | 0.00 | 0.35 | 0.35 | 92 | 1012.0 |
| 20260906041606 | 79 | 60 | 0.0 | 0.0 | 0.00 | 0.35 | 0.35 | 92 | 1012.0 |
| 20260906041106 | 79 | 60 | 0.0 | 0.0 | 0.00 | 0.35 | 0.35 | 92 | 1012.1 |
| 20260906040606 | 79 | 60 | 0.0 | 0.0 | 0.00 | 0.35 | 0.35 | 92 | 1012.2 |
| 20260906035606 | 79 | 60 | 0.0 | 0.0 | 0.00 | 0.35 | 0.35 | 92 | 1012.2 |
| 20260906035106 | 79 | 60 | 0.0 | 0.0 | 0.00 | 0.35 | 0.35 | 92 | 1012.3 |
| 20260906034606 | 79 | 60 | 0.0 | 0.0 | 0.00 | 0.35 | 0.35 | 92 | 1012.3 |
| 20260906034106 | 79 | 60 | 0.0 | 0.0 | 0.00 | 0.35 | 0.35 | 92 | 1012.5 |
| 20260906033606 | 79 | 60 | 0.0 | 0.0 | 0.00 | 0.35 | 0.35 | 91 | 1012.4 |
| 20260906033106 | 79 | 60 | 0.0 | 0.0 | 0.00 | 0.35 | 0.35 | 91 | 1012.7 |
| 20260906032106 | 79 | 59 | 0.0 | 0.0 | 0.00 | 0.35 | 0.35 | 92 | 1012.8 |
| 20260906031606 | 79 | 59 | 0.0 | 0.0 | 0.00 | 0.35 | 0.35 | 92 | 1013.0 |
| 20260906031106 | 79 | 60 | 0.0 | 0.0 | 0.00 | 0.35 | 0.35 | 92 | 1013.0 |
| 20260906030106 | 79 | 68 | 0.0 | 0.0 | 0.00 | 0.35 | 0.35 | 92 | 1012.9 |
| 20260906025106 | 79 | 68 | 0.0 | 0.0 | 0.00 | 0.35 | 0.35 | 91 | 1012.4 |
| 20260906024606 | 79 | 68 | 0.0 | 0.0 | 0.00 | 0.35 | 0.35 | 91 | 1012.2 |
| 20260906024106 | 79 | 68 | 0.0 | 0.0 | 0.00 | 0.35 | 0.35 | 91 | 1012.4 |
| 20260906023606 | 79 | 68 | 0.0 | 0.0 | 0.00 | 0.35 | 0.35 | 91 | 1012.4 |
| 20260906023106 | 79 | 68 | 0.0 | 0.0 | 0.00 | 0.35 | 0.35 | 91 | 1012.7 |
| 20260906022606 | 79 | 68 | 0.0 | 0.0 | 0.00 | 0.35 | 0.35 | 91 | 1012.7 |
| 20260906022107 | 79 | 68 | 0.0 | 0.0 | 0.00 | 0.35 | 0.35 | 91 | 1012.6 |
| 20260906021106 | 79 | 68 | 0.0 | 0.0 | 0.00 | 0.35 | 0.35 | 91 | 1012.6 |
| 20260906020606 | 79 | 68 | 0.0 | 0.0 | 0.00 | 0.35 | 0.35 | 91 | 1012.5 |
| 20260906015606 | 79 | 68 | 0.0 | 0.9 | 0.00 | 0.35 | 0.35 | 91 | 1012.3 |
| 20260906014606 | 79 | 105 | 0.0 | 0.9 | 0.00 | 0.35 | 0.35 | 91 | 1012.1 |
| 20260906014106 | 78 | 108 | 0.0 | 0.0 | 0.00 | 0.35 | 0.35 | 90 | 1011.9 |
| 20260906013606 | 78 | 108 | 0.0 | 0.0 | 0.00 | 0.35 | 0.35 | 90 | 1011.7 |
| 20260906013106 | 78 | 108 | 0.0 | 0.0 | 0.00 | 0.35 | 0.35 | 90 | 1011.5 |
| 20260906012606 | 78 | 108 | 0.0 | 0.0 | 0.00 | 0.35 | 0.35 | 90 | 1011.4 |
| 20260906012106 | 78 | 108 | 0.0 | 0.0 | 0.00 | 0.35 | 0.35 | 90 | 1011.2 |
| 20260906011606 | 79 | 108 | 0.0 | 0.0 | 0.00 | 0.35 | 0.35 | 89 | 1011.2 |
| 20260906010606 | 79 | 108 | 0.0 | 0.0 | 0.00 | 0.35 | 0.35 | 89 | 1010.9 |
| 20260906010106 | 79 | 108 | 0.0 | 0.0 | 0.00 | 0.35 | 0.35 | 89 | 1010.8 |
| 20260906005606 | 79 | 108 | 0.0 | 0.0 | 0.00 | 0.35 | 0.35 | 89 | 1010.7 |
| 20260906005106 | 79 | 108 | 0.0 | 0.0 | 0.00 | 0.35 | 0.35 | 88 | 1010.7 |
| 20260906004605 | 80 | 108 | 0.0 | 0.0 | 0.00 | 0.35 | 0.35 | 89 | 1010.8 |
| 20260906004106 | 79 | 108 | 0.0 | 0.0 | 0.00 | 0.35 | 0.35 | 87 | 1010.8 |
| 20260906003606 | 80 | 108 | 0.0 | 0.0 | 0.00 | 0.35 | 0.35 | 87 | 1010.5 |
| 20260906003106 | 80 | 108 | 0.0 | 0.0 | 0.00 | 0.35 | 0.35 | 87 | 1010.5 |
| 20260906002606 | 80 | 108 | 0.0 | 0.0 | 0.00 | 0.35 | 0.35 | 87 | 1010.5 |
| 20260906002106 | 80 | 108 | 0.0 | 0.0 | 0.00 | 0.35 | 0.35 | 86 | 1010.4 |
| 20260906001606 | 81 | 108 | 0.0 | 0.0 | 0.00 | 0.35 | 0.35 | 87 | 1010.4 |
| 20260906001106 | 81 | 108 | 0.0 | 0.0 | 0.00 | 0.35 | 0.35 | 87 | 1010.4 |
| 20260906000105 | 82 | 108 | 0.0 | 0.0 | 0.00 | 0.35 | 0.35 | 86 | 1010.6 |
| 20260905235606 | 82 | 108 | 0.0 | 0.0 | 0.00 | 0.35 | 0.35 | 85 | 1010.7 |
| 20260905234606 | 82 | 108 | 0.0 | 0.0 | 0.00 | 0.39 | 0.35 | 84 | 1010.9 |
| 20260905233606 | 83 | 108 | 0.0 | 0.0 | 0.00 | 0.44 | 0.35 | 84 | 1010.8 |
| 20260905233106 | 83 | 108 | 0.0 | 0.0 | 0.00 | 0.44 | 0.35 | 83 | 1010.9 |
| 20260905232105 | 84 | 108 | 0.0 | 0.0 | 0.00 | 0.64 | 0.35 | 82 | 1010.8 |
| 20260905231605 | 84 | 108 | 0.0 | 0.0 | 0.00 | 0.85 | 0.35 | 82 | 1011.0 |
| 20260905231105 | 84 | 108 | 0.0 | 0.0 | 0.00 | 0.87 | 0.35 | 81 | 1010.8 |
| 20260905230605 | 85 | 108 | 0.0 | 0.0 | 0.00 | 0.87 | 0.35 | 81 | 1010.8 |
| 20260905230105 | 85 | 108 | 0.0 | 0.0 | 0.00 | 0.87 | 0.35 | 80 | 1010.8 |
| 20260905225605 | 85 | 108 | 0.0 | 0.0 | 0.00 | 0.87 | 0.35 | 80 | 1010.9 |
| 20260905225105 | 85 | 108 | 0.0 | 0.0 | 0.00 | 0.87 | 0.35 | 80 | 1010.9 |
| 20260905224605 | 85 | 108 | 0.0 | 0.0 | 0.00 | 0.87 | 0.35 | 80 | 1011.0 |
| 20260905224105 | 85 | 108 | 0.0 | 0.0 | 0.00 | 0.87 | 0.35 | 80 | 1011.0 |
| 20260905223606 | 85 | 108 | 0.0 | 0.0 | 0.00 | 0.87 | 0.35 | 80 | 1011.0 |
| 20260905223105 | 85 | 108 | 0.0 | 0.0 | 0.00 | 0.87 | 0.35 | 80 | 1011.0 |
| 20260905222605 | 86 | 108 | 0.0 | 0.0 | 0.00 | 0.87 | 0.35 | 80 | 1011.0 |
| 20260905222105 | 86 | 108 | 0.0 | 0.0 | 0.00 | 0.87 | 0.35 | 81 | 1011.0 |
| 20260905221605 | 86 | 108 | 0.0 | 0.0 | 0.00 | 0.87 | 0.35 | 79 | 1010.9 |
| 20260905221106 | 86 | 108 | 0.0 | 0.0 | 0.00 | 0.87 | 0.35 | 79 | 1010.9 |
| 20260905220605 | 86 | 108 | 0.0 | 0.0 | 0.00 | 0.87 | 0.35 | 79 | 1011.0 |
| 20260905220105 | 87 | 108 | 0.0 | 0.0 | 0.00 | 0.87 | 0.35 | 78 | 1010.9 |
| 20260905215605 | 87 | 106 | 0.0 | 0.9 | 0.00 | 0.87 | 0.35 | 78 | 1010.8 |
| 20260905215106 | 87 | 106 | 0.0 | 0.9 | 0.00 | 0.87 | 0.35 | 78 | 1010.9 |
| 20260905214605 | 87 | 106 | 0.0 | 0.9 | 0.00 | 0.87 | 0.35 | 78 | 1010.8 |
| 20260905214106 | 87 | 106 | 0.0 | 0.9 | 0.00 | 0.87 | 0.35 | 77 | 1010.9 |
| 20260905213605 | 87 | 106 | 0.0 | 0.9 | 0.00 | 0.87 | 0.35 | 76 | 1011.0 |
| 20260905213105 | 87 | 107 | 0.0 | 0.9 | 0.00 | 0.87 | 0.35 | 78 | 1011.0 |
| 20260905212106 | 87 | 127 | 0.0 | 0.9 | 0.00 | 0.87 | 0.35 | 77 | 1011.1 |
| 20260905211606 | 87 | 127 | 0.0 | 1.7 | 0.00 | 0.87 | 0.35 | 78 | 1011.2 |
| 20260905211106 | 87 | 107 | 0.0 | 1.7 | 0.00 | 0.87 | 0.35 | 77 | 1011.2 |
| 20260905210605 | 87 | 359 | 0.0 | 0.9 | 0.00 | 0.87 | 0.35 | 76 | 1011.2 |
| 20260905205605 | 86 | 72 | 0.9 | 1.7 | 0.00 | 0.87 | 0.35 | 78 | 1011.3 |
| 20260905205106 | 86 | 77 | 0.0 | 0.9 | 0.00 | 0.87 | 0.35 | 81 | 1011.5 |
| 20260905204605 | 86 | 77 | 0.0 | 0.9 | 0.00 | 0.87 | 0.35 | 82 | 1011.4 |
| 20260905204105 | 86 | 326 | 0.0 | 0.9 | 0.00 | 0.87 | 0.35 | 80 | 1011.5 |
| 20260905203605 | 86 | 54 | 0.0 | 1.7 | 0.00 | 0.87 | 0.35 | 81 | 1011.5 |
| 20260905203105 | 86 | 112 | 0.0 | 1.7 | 0.00 | 0.87 | 0.35 | 80 | 1011.7 |
| 20260905202605 | 86 | 100 | 0.9 | 0.9 | 0.00 | 0.87 | 0.35 | 82 | 1012.0 |
| 20260905202105 | 86 | 156 | 0.9 | 0.9 | 0.00 | 0.87 | 0.35 | 83 | 1012.3 |
| 20260905201105 | 85 | 136 | 0.0 | 0.9 | 0.00 | 0.87 | 0.35 | 82 | 1012.3 |
| 20260905200105 | 85 | 326 | 0.0 | 0.0 | 0.00 | 0.87 | 0.35 | 80 | 1012.4 |
| 20260905195605 | 85 | 328 | 0.0 | 0.0 | 0.00 | 0.87 | 0.35 | 79 | 1012.6 |
| 20260905195106 | 85 | 328 | 0.0 | 0.0 | 0.00 | 0.87 | 0.35 | 81 | 1012.7 |
| 20260905194605 | 85 | 328 | 0.0 | 0.9 | 0.00 | 0.87 | 0.35 | 82 | 1012.8 |
| 20260905193605 | 84 | 347 | 0.0 | 1.7 | 0.00 | 0.87 | 0.35 | 84 | 1012.9 |
| 20260905193105 | 84 | 348 | 0.9 | 1.7 | 0.00 | 0.87 | 0.35 | 84 | 1013.0 |
| 20260905192605 | 83 | 72 | 0.0 | 0.9 | 0.00 | 0.87 | 0.35 | 86 | 1013.2 |
| 20260905192105 | 83 | 355 | 0.0 | 1.7 | 0.00 | 0.87 | 0.35 | 88 | 1013.2 |
| 20260905191605 | 83 | 316 | 0.0 | 1.7 | 0.00 | 0.87 | 0.35 | 88 | 1013.3 |
| 20260905191105 | 82 | 321 | 0.0 | 0.9 | 0.00 | 0.87 | 0.35 | 88 | 1013.3 |
| 20260905190135 | 82 | 348 | 0.0 | 0.9 | 0.00 | 0.87 | 0.35 | 89 | 1013.4 |
| 20260905185105 | 81 | 300 | 0.0 | 1.7 | 0.00 | 0.87 | 0.35 | 91 | 1013.4 |
| 20260905184605 | 80 | 300 | 0.0 | 1.7 | 0.00 | 0.87 | 0.35 | 91 | 1013.2 |
| 20260905184105 | 80 | 309 | 0.9 | 2.6 | 0.01 | 0.87 | 0.35 | 91 | 1013.3 |
| 20260905183605 | 79 | 310 | 0.0 | 2.6 | 0.04 | 0.87 | 0.35 | 91 | 1013.4 |
| 20260905183105 | 79 | 314 | 0.9 | 2.6 | 0.08 | 0.87 | 0.35 | 92 | 1013.3 |
| 20260905182605 | 79 | 307 | 0.0 | 1.7 | 0.19 | 0.87 | 0.35 | 92 | 1013.5 |
| 20260905182105 | 79 | 300 | 0.0 | 1.7 | 0.23 | 0.87 | 0.35 | 92 | 1013.6 |
| 20260905181105 | 79 | 300 | 0.9 | 1.7 | 0.28 | 0.87 | 0.35 | 93 | 1013.6 |
| 20260905180605 | 79 | 298 | 0.9 | 1.7 | 0.28 | 0.87 | 0.35 | 92 | 1013.6 |
| 20260905180105 | 79 | 310 | 0.9 | 2.6 | 0.28 | 0.87 | 0.35 | 92 | 1013.7 |
| 20260905175605 | 79 | 311 | 0.9 | 2.6 | 0.28 | 0.87 | 0.35 | 92 | 1013.8 |
| 20260905175105 | 79 | 307 | 0.0 | 2.6 | 0.28 | 0.87 | 0.35 | 92 | 1013.8 |
| 20260905174605 | 79 | 309 | 1.7 | 2.6 | 0.28 | 0.87 | 0.35 | 92 | 1013.9 |
| 20260905174105 | 79 | 302 | 0.0 | 1.7 | 0.27 | 0.86 | 0.34 | 92 | 1014.0 |
| 20260905173605 | 79 | 302 | 0.0 | 2.6 | 0.24 | 0.83 | 0.31 | 91 | 1014.1 |
| 20260905173105 | 79 | 305 | 1.7 | 3.5 | 0.20 | 0.79 | 0.27 | 91 | 1014.3 |
| 20260905172105 | 81 | 300 | 0.0 | 2.6 | 0.05 | 0.64 | 0.12 | 89 | 1014.4 |
| 20260905171605 | 82 | 321 | 0.9 | 2.6 | 0.00 | 0.59 | 0.07 | 88 | 1014.4 |
| 20260905171105 | 83 | 285 | 0.0 | 0.9 | 0.00 | 0.59 | 0.07 | 87 | 1014.6 |
| 20260905170605 | 83 | 296 | 0.0 | 3.5 | 0.00 | 0.59 | 0.07 | 86 | 1014.5 |
| 20260905170105 | 83 | 299 | 0.0 | 3.5 | 0.00 | 0.59 | 0.07 | 84 | 1014.7 |
| 20260905165605 | 84 | 337 | 3.5 | 3.5 | 0.00 | 0.59 | 0.07 | 83 | 1014.7 |
| 20260905165105 | 84 | 314 | 0.0 | 3.5 | 0.00 | 0.59 | 0.07 | 83 | 1014.7 |
| 20260905164605 | 84 | 316 | 1.7 | 3.5 | 0.00 | 0.59 | 0.07 | 82 | 1014.5 |
| 20260905164105 | 85 | 290 | 0.9 | 2.6 | 0.00 | 0.59 | 0.07 | 83 | 1014.5 |
| 20260905163605 | 85 | 320 | 2.6 | 2.6 | 0.00 | 0.59 | 0.07 | 83 | 1014.6 |
| 20260905163105 | 84 | 320 | 0.0 | 2.6 | 0.00 | 0.59 | 0.07 | 83 | 1014.7 |
| 20260905162605 | 84 | 320 | 0.0 | 2.6 | 0.00 | 0.59 | 0.07 | 82 | 1014.8 |
| 20260905162105 | 84 | 317 | 2.6 | 2.6 | 0.00 | 0.59 | 0.07 | 82 | 1014.9 |